• In Hungary
  • List of Countries
  • For 7 days
  • Water Temperature
  • Satellite Maps
  • Weather Map
  • News
  • Weather Widgets
  • user-avatar
    Login

    Hourly Weather Elabuga

    Today, 18 June, Monday

    Time Temperature Precipitation Wind Pressure Humidity
    00:00 +11°C° 0 mm 0 mps 749 mmHg 87%
    01:00 +10°C° 0 mm 0 mps 750 mmHg 87%
    02:00 +11°C° 0 mm 1 mps 750 mmHg 87%
    03:00 +10°C° 0 mm 0 mps 749 mmHg 88%
    04:00 +12°C° 0 mm 1 mps 749 mmHg 85%
    05:00 +14°C° 0 mm 1 mps 749 mmHg 83%
    06:00 +15°C° 0 mm 2 mps 749 mmHg 80%
    07:00 +17°C° 0 mm 2 mps 749 mmHg 75%
    08:00 +19°C° 0 mm 3 mps 749 mmHg 70%
    09:00 +20°C° 0 mm 3 mps 748 mmHg 63%
    10:00 +21°C° 0 mm 3 mps 748 mmHg 61%
    11:00 +22°C° 0 mm 4 mps 748 mmHg 59%
    12:00 +23°C° 0 mm 4 mps 748 mmHg 57%
    13:00 +23°C° 0 mm 4 mps 748 mmHg 56%
    14:00 +23°C° 0 mm 4 mps 748 mmHg 55%
    15:00 +23°C° 0 mm 4 mps 747 mmHg 54%
    16:00 +23°C° 0 mm 4 mps 747 mmHg 59%
    17:00 +22°C° 0 mm 3 mps 747 mmHg 64%
    18:00 +22°C° 0 mm 3 mps 747 mmHg 68%
    19:00 +20°C° 0 mm 3 mps 747 mmHg 71%
    20:00 +18°C° 0 mm 2 mps 747 mmHg 74%
    21:00 +16°C° 0 mm 2 mps 747 mmHg 76%
    22:00 +15°C° 0 mm 2 mps 747 mmHg 77%
    23:00 +15°C° 0 mm 2 mps 747 mmHg 77%

    Tomorrow, 19 June, Tuesday

    Time Temperature Precipitation Wind Pressure Humidity
    00:00 +14°C° 0 mm 2 mps 747 mmHg 77%
    01:00 +14°C° 0 mm 2 mps 747 mmHg 79%
    02:00 +13°C° 0 mm 2 mps 747 mmHg 81%
    03:00 +13°C° 0 mm 2 mps 747 mmHg 83%
    04:00 +14°C° 0 mm 2 mps 747 mmHg 81%
    05:00 +16°C° 0 mm 2 mps 747 mmHg 80%
    06:00 +17°C° 0 mm 2 mps 747 mmHg 78%
    07:00 +19°C° 0 mm 3 mps 747 mmHg 74%
    08:00 +21°C° 0 mm 3 mps 747 mmHg 71%
    09:00 +22°C° 0 mm 4 mps 747 mmHg 68%
    10:00 +23°C° 0 mm 4 mps 747 mmHg 62%
    11:00 +25°C° 0 mm 4 mps 747 mmHg 57%
    12:00 +26°C° 0 mm 4 mps 747 mmHg 51%
    13:00 +26°C° 0 mm 4 mps 747 mmHg 52%
    14:00 +26°C° 0 mm 4 mps 747 mmHg 53%
    15:00 +26°C° 0 mm 4 mps 747 mmHg 55%
    16:00 +25°C° 0.1 mm 4 mps 747 mmHg 61%
    17:00 +23°C° 0.1 mm 4 mps 747 mmHg 67%
    18:00 +22°C° 0.1 mm 3 mps 747 mmHg 73%
    19:00 +20°C° 0 mm 3 mps 747 mmHg 77%
    20:00 +19°C° 0 mm 3 mps 747 mmHg 80%
    21:00 +18°C° 0 mm 3 mps 747 mmHg 84%
    22:00 +17°C° 0 mm 3 mps 747 mmHg 85%
    23:00 +17°C° 0 mm 3 mps 746 mmHg 85%

    Day after tomorrow, 20 June, Wednesday

    Time Temperature Precipitation Wind Pressure Humidity
    00:00 +16°C° 0 mm 3 mps 746 mmHg 86%
    01:00 +16°C° 0 mm 3 mps 746 mmHg 87%
    02:00 +16°C° 0 mm 3 mps 746 mmHg 87%
    03:00 +14°C° 0 mm 3 mps 746 mmHg 88%
    04:00 +16°C° 0 mm 3 mps 746 mmHg 86%
    05:00 +17°C° 0 mm 4 mps 745 mmHg 83%
    06:00 +18°C° 0 mm 4 mps 745 mmHg 81%
    07:00 +20°C° 0 mm 5 mps 745 mmHg 77%
    08:00 +21°C° 0 mm 6 mps 744 mmHg 74%
    09:00 +23°C° 0 mm 7 mps 744 mmHg 70%
    10:00 +23°C° 0.1 mm 8 mps 743 mmHg 69%
    11:00 +24°C° 0.1 mm 8 mps 743 mmHg 69%
    12:00 +24°C° 0.1 mm 9 mps 742 mmHg 68%
    13:00 +23°C° 1.2 mm 9 mps 742 mmHg 72%
    14:00 +23°C° 1.2 mm 9 mps 742 mmHg 76%
    15:00 +22°C° 1.2 mm 9 mps 742 mmHg 80%
    16:00 +21°C° 0.2 mm 8 mps 742 mmHg 79%
    17:00 +20°C° 0.2 mm 6 mps 742 mmHg 78%
    18:00 +20°C° 0.2 mm 5 mps 743 mmHg 77%
    19:00 +18°C° 0 mm 4 mps 743 mmHg 77%
    20:00 +17°C° 0 mm 4 mps 744 mmHg 77%
    21:00 +14°C° 0 mm 3 mps 744 mmHg 77%
    22:00 +13°C° 0 mm 3 mps 745 mmHg 78%
    23:00 +13°C° 0 mm 3 mps 745 mmHg 79%

    21 June, Thursday

    Time Temperature Precipitation Wind Pressure Humidity
    00:00 +12°C° 0 mm 3 mps 745 mmHg 80%
    01:00 +12°C° 0 mm 4 mps 745 mmHg 78%
    02:00 +12°C° 0 mm 4 mps 746 mmHg 77%
    03:00 +12°C° 0 mm 4 mps 746 mmHg 76%
    04:00 +13°C° 0 mm 4 mps 746 mmHg 75%
    05:00 +14°C° 0 mm 5 mps 746 mmHg 74%
    06:00 +14°C° 0 mm 5 mps 746 mmHg 73%
    07:00 +16°C° 0 mm 6 mps 746 mmHg 69%
    08:00 +17°C° 0 mm 6 mps 747 mmHg 65%
    09:00 +18°C° 0 mm 7 mps 747 mmHg 61%
    10:00 +20°C° 0 mm 7 mps 746 mmHg 59%
    11:00 +20°C° 0 mm 7 mps 746 mmHg 57%
    12:00 +21°C° 0 mm 7 mps 746 mmHg 55%
    13:00 +21°C° 0.1 mm 7 mps 746 mmHg 56%
    14:00 +21°C° 0.1 mm 7 mps 746 mmHg 58%
    15:00 +21°C° 0.1 mm 7 mps 746 mmHg 60%
    16:00 +20°C° 0.1 mm 6 mps 746 mmHg 65%
    17:00 +20°C° 0.1 mm 5 mps 746 mmHg 70%
    18:00 +20°C° 0.1 mm 3 mps 746 mmHg 74%
    19:00 +18°C° 0 mm 3 mps 747 mmHg 78%
    20:00 +16°C° 0 mm 3 mps 747 mmHg 81%
    21:00 +14°C° 0 mm 3 mps 747 mmHg 84%
    22:00 +13°C° 0 mm 3 mps 747 mmHg 86%
    23:00 +13°C° 0 mm 3 mps 747 mmHg 88%

    22 June, Friday

    Time Temperature Precipitation Wind Pressure Humidity
    00:00 +12°C° 0 mm 3 mps 748 mmHg 90%
    01:00 +12°C° 0 mm 3 mps 748 mmHg 90%
    02:00 +12°C° 0 mm 3 mps 748 mmHg 91%
    03:00 +11°C° 0 mm 3 mps 748 mmHg 92%
    04:00 +13°C° 0 mm 3 mps 749 mmHg 88%
    05:00 +14°C° 0 mm 3 mps 749 mmHg 84%
    06:00 +16°C° 0 mm 3 mps 749 mmHg 81%
    07:00 +18°C° 0 mm 3 mps 749 mmHg 74%
    08:00 +19°C° 0 mm 4 mps 750 mmHg 68%
    09:00 +21°C° 0 mm 4 mps 750 mmHg 62%
    10:00 +21°C° 0 mm 4 mps 750 mmHg 60%
    11:00 +22°C° 0 mm 4 mps 750 mmHg 59%
    12:00 +22°C° 0 mm 5 mps 750 mmHg 57%
    13:00 +23°C° 0 mm 5 mps 750 mmHg 58%
    14:00 +23°C° 0 mm 5 mps 750 mmHg 59%
    15:00 +23°C° 0 mm 5 mps 750 mmHg 61%
    16:00 +23°C° 0 mm 4 mps 750 mmHg 65%
    17:00 +22°C° 0 mm 3 mps 750 mmHg 69%
    18:00 +23°C° 0 mm 2 mps 751 mmHg 74%
    19:00 +20°C° 0 mm 2 mps 751 mmHg 78%
    20:00 +19°C° 0 mm 2 mps 751 mmHg 83%
    21:00 +18°C° 0 mm 1 mps 751 mmHg 87%
    22:00 +18°C° 0 mm 1 mps 751 mmHg 88%
    23:00 +16°C° 0 mm 1 mps 752 mmHg 88%

    23 June, Saturday

    Time Temperature Precipitation Wind Pressure Humidity
    00:00 +16°C° 0 mm 1 mps 752 mmHg 89%
    01:00 +16°C° 0 mm 1 mps 752 mmHg 90%
    02:00 +15°C° 0 mm 1 mps 752 mmHg 90%
    03:00 +15°C° 0 mm 2 mps 752 mmHg 91%
    04:00 +16°C° 0 mm 2 mps 752 mmHg 88%
    05:00 +18°C° 0 mm 2 mps 753 mmHg 85%
    06:00 +19°C° 0 mm 2 mps 753 mmHg 83%
    07:00 +21°C° 0 mm 2 mps 753 mmHg 78%
    08:00 +22°C° 0 mm 3 mps 753 mmHg 74%
    09:00 +25°C° 0 mm 3 mps 753 mmHg 70%
    10:00 +26°C° 0 mm 4 mps 753 mmHg 67%
    11:00 +27°C° 0 mm 4 mps 753 mmHg 64%
    12:00 +28°C° 0 mm 4 mps 752 mmHg 61%
    13:00 +28°C° 0 mm 4 mps 752 mmHg 61%
    14:00 +28°C° 0 mm 4 mps 752 mmHg 61%
    15:00 +28°C° 0 mm 4 mps 752 mmHg 60%
    16:00 +28°C° 0 mm 3 mps 752 mmHg 65%
    17:00 +27°C° 0 mm 3 mps 751 mmHg 69%
    18:00 +27°C° 0 mm 2 mps 751 mmHg 73%
    19:00 +25°C° 0 mm 2 mps 751 mmHg 78%
    20:00 +23°C° 0 mm 2 mps 751 mmHg 82%
    21:00 +20°C° 0 mm 2 mps 751 mmHg 86%
    22:00 +20°C° 0 mm 2 mps 751 mmHg 87%
    23:00 +19°C° 0 mm 2 mps 752 mmHg 87%
    Show more